Powrót do katalogu

THORAD AGENA D DEB

AktywnySSO
NORAD 4920·DEBRIS·🇺🇸 United States

Wystrzelony Apr 8, 1970 z Vandenberg Space Force Base

Loading…

Następne Przeloty (najbliższe 24 godziny)

TLE

ŚwieżeSource: Space-Track

Epoka: Sep 14, 2026, 22:22 UTC

1 04920U 70025FS  26257.93244278  .00000399  00000-0  66899-3 0  9992
2 04920  99.4254 147.5389 0089532 141.6724 282.5203 13.50581330765682

Śledź THORAD AGENA D DEB w czasie rzeczywistym z AllMySat

Download on the App Store